Regional Weather Roundup
Issued by NWS

Home | Current Version | Previous Version | Graphics & Text | Print | Product List | Glossary On
Versions: 1 2 3 4 5 6 7 8 9 10 11 12 13 14 15 16 17 18 19 20 21 22 23 24 25 26 27 28 29 30 31 32 33 34 35 36 37 38 39 40 41 42 43 44 45 46 47 48 49 50
000
ASUS43 KTOP 022359
RWRKS

WEATHER ROUNDUP FOR KANSAS
NATIONAL WEATHER SERVICE GOODLAND KS
700 PM CDT SAT MAY 02 2015

NOTE:  "FAIR" INDICATES FEW OR NO CLOUDS BELOW 12,000 FEET WITH NO
SIGNIFICANT WEATHER AND/OR OBSTRUCTIONS TO VISIBILITY.

KSZ001>006-013>018-027>032-041>047-030100-
NORTHWEST KANSAS

CITY           SKY/WX    TMP DP  RH WIND       PRES   REMARKS
GOODLAND       CLOUDY    78  49  35 S9        29.81S
6HR MIN TEMP:  77; 6HR MAX TEMP:  83;

HAYS           PTSUNNY   84  45  24 S18G25    29.75F
HILL CITY      MOSUNNY   82  49  31 S8        29.75F
6HR MIN TEMP:  80; 6HR MAX TEMP:  85;

RUSSELL        MOSUNNY   84  50  30 S25G31    29.75S
6HR MIN TEMP:  82; 6HR MAX TEMP:  89;

$$

KSZ061>065-074>080-084>089-030100-
SOUTHWEST KANSAS

CITY           SKY/WX    TMP DP  RH WIND       PRES   REMARKS
DODGE CITY     MOSUNNY   83  42  23 S24G33    29.80S
6HR MIN TEMP:  83; 6HR MAX TEMP:  87;

ELKHART          N/A     76  40  27 W13         N/A
GARDEN CITY    MOSUNNY   82  39  21 S22G30    29.78R
6HR MIN TEMP:  80; 6HR MAX TEMP:  89;

GREAT BEND     MOSUNNY   81  54  39 S22G31    29.78F
LIBERAL        CLOUDY    81  43  26 S14       29.83S
$$

KSZ066>073-081>083-090>101-030100-
SOUTHEAST KANSAS

CITY           SKY/WX    TMP DP  RH WIND       PRES   REMARKS
CHANUTE        SUNNY     75  55  49 S14G23    29.92F
6HR MIN TEMP:  69; 6HR MAX TEMP:  78; 6HR PCP: TRACE;

COFFEYVILLE    LGT RAIN  76  55  48 S15       29.92F
6HR MIN TEMP:  73; 6HR MAX TEMP:  79; 6HR PCP: TRACE;

HUTCHINSON     MOSUNNY   80  55  42 S18G30    29.84R
6HR MIN TEMP:  79; 6HR MAX TEMP:  84;

MEDICINE LODGE   N/A     81  50  33 S20G29    29.83F
NEWTON         MOSUNNY   75  50  41 S20G29    29.88S
PARSONS        SUNNY     76  55  48 S9        29.93F
6HR MIN TEMP:  70; 6HR MAX TEMP:  79; 6HR PCP: TRACE;

WICHITA INTL   MOSUNNY   78  52  40 S20G29    29.85F
6HR MIN TEMP:  78; 6HR MAX TEMP:  83;

WICHITA JABRA  MOSUNNY   77  52  41 S20G29    29.86F
6HR MIN TEMP:  77; 6HR MAX TEMP:  81;

WINFIELD       SUNNY     77  53  43 S17G25    29.89F
6HR MIN TEMP:  77; 6HR MAX TEMP:  80;

$$

KSZ007>012-019>026-033>040-048>060-102>105-030100-
NORTHEAST KANSAS

CITY           SKY/WX    TMP DP  RH WIND       PRES   REMARKS
CONCORDIA      SUNNY     81  52  36 S23       29.77F
6HR MIN TEMP:  78; 6HR MAX TEMP:  84;

EMPORIA        SUNNY     76  52  43 S21G30    29.87F
6HR MIN TEMP:  67; 6HR MAX TEMP:  79;

LAWRENCE       SUNNY     75  52  44 S12       29.88F
6HR MIN TEMP:  71; 6HR MAX TEMP:  78;

MANHATTAN      LGT RAIN  80  50  34 S18G25    29.81F
6HR MIN TEMP:  70; 6HR MAX TEMP:  83; 6HR PCP: TRACE;

OLATHE IND     SUNNY     74  52  46 S17       29.91F
6HR MIN TEMP:  70; 6HR MAX TEMP:  76;

OLATHE EXE     SUNNY     74  54  49 S13       29.90F
6HR MIN TEMP:  69; 6HR MAX TEMP:  75;

SALINA         SUNNY     80  56  43 S17G25    29.81S
6HR MIN TEMP:  80; 6HR MAX TEMP:  85;

TOPEKA BILLARD SUNNY     76  53  44 S14G22    29.86F
6HR MIN TEMP:  69; 6HR MAX TEMP:  79;

TOPEKA FORBES  SUNNY     77  53  43 S20       29.86F
6HR MIN TEMP:  69; 6HR MAX TEMP:  80;

$$


USA.gov is the U.S. government's official web portal to all federal, state and local government web resources and services.